Location: Unspecified
(49.2170°N, 0.0000°E)
Time: 07:39:03
(UTC+00:00)

Vanguard 3 - Pass Details

Date: 25 January 2021
Orbit: 508 x 3262 km, 33.4° (Epoch: 08 March)

Event Time Altitude Azimuth Distance (km) Brightness Sun altitude
Rises 02:56:31 0° 209° (SSW) 3,305 - -45.4°
Reaches altitude 10° 02:59:30 10° 188° (S) 2,698 - -44.9°
Maximum altitude 03:03:40 17° 149° (SSE) 2,654 - -44.3°
Exits shadow 03:05:18 17° 135° (SE) 2,895 10.0 -44.1°
Drops below altitude 10° 03:09:17 10° 112° (ESE) 3,839 10.9 -43.5°
Sets 03:14:50 0° 97° (E) 5,444 12.0 -42.7°
